When you browse on this site, cookies collect data to enhance your experience and personalize the content and advertising you see.
Visit our Privacy Policy to learn more. By continuing to use the site, you agree to this use of cookies and data.
  • En España
  • Lista de países
  • Para 7 días
  • Temperatura del agua
  • Mapa Satelital
  • El tiempo en el mapa
  • Informadores
  • user-avatar
    Iniciar sesión

    Tiempo cada hora Borovec

    Hoy, 17 Noviembre, Sábado

    Tiempo Temperatura Precipitaciones Viento Presión Humedad
    00:00 +1°C° 0 mm 1 mps 717 mmHg 83%
    01:00 0°C° 0 mm 1 mps 717 mmHg 83%
    02:00 -2°C° 0 mm 2 mps 717 mmHg 83%
    03:00 -2°C° 0 mm 2 mps 717 mmHg 84%
    04:00 -2°C° 0 mm 2 mps 717 mmHg 85%
    05:00 -3°C° 0 mm 2 mps 717 mmHg 87%
    06:00 -3°C° 0 mm 2 mps 717 mmHg 86%
    07:00 -3°C° 0 mm 2 mps 717 mmHg 85%
    08:00 -3°C° 0 mm 2 mps 717 mmHg 84%
    09:00 -1°C° 0 mm 2 mps 718 mmHg 76%
    10:00 +1°C° 0 mm 2 mps 718 mmHg 67%
    11:00 +3°C° 0 mm 2 mps 718 mmHg 59%
    12:00 +3°C° 0 mm 2 mps 718 mmHg 57%
    13:00 +3°C° 0 mm 3 mps 717 mmHg 54%
    14:00 +3°C° 0 mm 3 mps 717 mmHg 52%
    15:00 +2°C° 0 mm 3 mps 717 mmHg 57%
    16:00 +2°C° 0 mm 2 mps 717 mmHg 63%
    17:00 +1°C° 0 mm 2 mps 717 mmHg 68%
    18:00 +1°C° 0 mm 2 mps 717 mmHg 73%
    19:00 -1°C° 0 mm 2 mps 717 mmHg 77%
    20:00 -2°C° 0 mm 2 mps 717 mmHg 82%
    21:00 -2°C° 0 mm 2 mps 717 mmHg 84%
    22:00 0°C° 0 mm 1 mps 717 mmHg 85%
    23:00 0°C° 0 mm 1 mps 717 mmHg 87%

    Mañana, 18 Noviembre, Domingo

    Tiempo Temperatura Precipitaciones Viento Presión Humedad
    00:00 0°C° 0 mm 1 mps 717 mmHg 87%
    01:00 0°C° 0 mm 1 mps 717 mmHg 87%
    02:00 0°C° 0 mm 1 mps 716 mmHg 86%
    03:00 0°C° 0 mm 1 mps 716 mmHg 86%
    04:00 0°C° 0 mm 1 mps 716 mmHg 86%
    05:00 0°C° 0 mm 1 mps 715 mmHg 86%
    06:00 +1°C° 0 mm 1 mps 715 mmHg 85%
    07:00 +1°C° 0 mm 1 mps 715 mmHg 83%
    08:00 +1°C° 0 mm 1 mps 715 mmHg 82%
    09:00 +2°C° 0 mm 2 mps 715 mmHg 78%
    10:00 +3°C° 0 mm 2 mps 714 mmHg 73%
    11:00 +4°C° 0 mm 2 mps 714 mmHg 69%
    12:00 +5°C° 0 mm 2 mps 714 mmHg 68%
    13:00 +5°C° 0 mm 2 mps 713 mmHg 68%
    14:00 +6°C° 0 mm 2 mps 712 mmHg 68%
    15:00 +5°C° 0.5 mm 2 mps 712 mmHg 74%
    16:00 +4°C° 0.5 mm 2 mps 711 mmHg 80%
    17:00 +3°C° 0.5 mm 2 mps 710 mmHg 86%
    18:00 +3°C° 1.3 mm 2 mps 710 mmHg 88%
    19:00 +3°C° 1.3 mm 2 mps 709 mmHg 90%
    20:00 +3°C° 1.3 mm 1 mps 709 mmHg 92%
    21:00 +3°C° 1.1 mm 1 mps 709 mmHg 92%
    22:00 +3°C° 1.1 mm 1 mps 708 mmHg 93%
    23:00 +3°C° 1.1 mm 1 mps 708 mmHg 94%

    Pasado mañana, 19 Noviembre, Lunes

    Tiempo Temperatura Precipitaciones Viento Presión Humedad
    00:00 +3°C° 0.8 mm 1 mps 707 mmHg 94%
    01:00 +3°C° 0.8 mm 1 mps 707 mmHg 94%
    02:00 +3°C° 0.8 mm 1 mps 706 mmHg 95%
    03:00 +3°C° 0.2 mm 1 mps 706 mmHg 95%
    04:00 +3°C° 0.2 mm 1 mps 706 mmHg 95%
    05:00 +2°C° 0.2 mm 1 mps 706 mmHg 94%
    06:00 +2°C° 0 mm 1 mps 706 mmHg 94%
    07:00 +2°C° 0 mm 1 mps 707 mmHg 94%
    08:00 +2°C° 0 mm 1 mps 707 mmHg 93%
    09:00 +3°C° 0 mm 1 mps 707 mmHg 91%
    10:00 +5°C° 0 mm 1 mps 707 mmHg 89%
    11:00 +6°C° 0 mm 1 mps 708 mmHg 88%
    12:00 +7°C° 0 mm 1 mps 708 mmHg 86%
    13:00 +7°C° 0 mm 1 mps 708 mmHg 85%
    14:00 +8°C° 0 mm 1 mps 708 mmHg 84%
    15:00 +7°C° 0 mm 1 mps 708 mmHg 86%
    16:00 +6°C° 0 mm 1 mps 708 mmHg 89%
    17:00 +5°C° 0 mm 1 mps 708 mmHg 91%
    18:00 +4°C° 0 mm 1 mps 709 mmHg 91%
    19:00 +4°C° 0 mm 1 mps 709 mmHg 92%
    20:00 +3°C° 0 mm 1 mps 710 mmHg 92%
    21:00 +3°C° 0 mm 1 mps 710 mmHg 91%
    22:00 +3°C° 0 mm 1 mps 710 mmHg 91%
    23:00 +3°C° 0 mm 1 mps 710 mmHg 90%

    20 Noviembre, Martes

    Tiempo Temperatura Precipitaciones Viento Presión Humedad
    00:00 +4°C° 0 mm 1 mps 710 mmHg 90%
    01:00 +4°C° 0 mm 1 mps 710 mmHg 90%
    02:00 +4°C° 0 mm 1 mps 710 mmHg 91%
    03:00 +4°C° 0.3 mm 2 mps 710 mmHg 91%
    04:00 +4°C° 0.3 mm 2 mps 710 mmHg 92%
    05:00 +4°C° 0.3 mm 2 mps 710 mmHg 92%
    06:00 +4°C° 0.1 mm 2 mps 710 mmHg 92%
    07:00 +4°C° 0.1 mm 2 mps 710 mmHg 92%
    08:00 +4°C° 0.1 mm 2 mps 710 mmHg 92%
    09:00 +6°C° 0 mm 2 mps 710 mmHg 90%
    10:00 +7°C° 0 mm 3 mps 710 mmHg 88%
    11:00 +8°C° 0 mm 3 mps 710 mmHg 85%
    12:00 +9°C° 0.1 mm 3 mps 710 mmHg 84%
    13:00 +10°C° 0.1 mm 3 mps 710 mmHg 83%
    14:00 +10°C° 0.1 mm 3 mps 709 mmHg 83%
    15:00 +10°C° 0 mm 3 mps 709 mmHg 85%
    16:00 +9°C° 0 mm 3 mps 708 mmHg 88%
    17:00 +8°C° 0 mm 3 mps 708 mmHg 90%
    18:00 +8°C° 0 mm 3 mps 708 mmHg 91%
    19:00 +8°C° 0 mm 3 mps 707 mmHg 92%
    20:00 +8°C° 0 mm 3 mps 707 mmHg 93%
    21:00 +8°C° 0.5 mm 3 mps 707 mmHg 93%
    22:00 +8°C° 0.5 mm 2 mps 707 mmHg 94%
    23:00 +8°C° 0.5 mm 2 mps 707 mmHg 94%

    21 Noviembre, Miércoles

    Tiempo Temperatura Precipitaciones Viento Presión Humedad
    00:00 +8°C° 0.4 mm 2 mps 707 mmHg 95%
    01:00 +8°C° 0.4 mm 2 mps 707 mmHg 95%
    02:00 +9°C° 0.4 mm 1 mps 706 mmHg 95%
    03:00 +9°C° 0 mm 1 mps 707 mmHg 95%
    04:00 +9°C° 0 mm 1 mps 707 mmHg 95%
    05:00 +9°C° 0 mm 1 mps 707 mmHg 95%
    06:00 +9°C° 0 mm 1 mps 707 mmHg 95%
    07:00 +9°C° 0 mm 1 mps 707 mmHg 94%
    08:00 +8°C° 0 mm 1 mps 707 mmHg 93%
    09:00 +10°C° 0 mm 1 mps 708 mmHg 87%
    10:00 +12°C° 0 mm 1 mps 708 mmHg 82%
    11:00 +14°C° 0 mm 1 mps 709 mmHg 76%
    12:00 +14°C° 0 mm 1 mps 709 mmHg 72%
    13:00 +15°C° 0 mm 1 mps 708 mmHg 69%
    14:00 +16°C° 0 mm 1 mps 708 mmHg 65%
    15:00 +14°C° 0 mm 1 mps 708 mmHg 70%
    16:00 +13°C° 0 mm 1 mps 708 mmHg 76%
    17:00 +11°C° 0 mm 0 mps 708 mmHg 82%
    18:00 +10°C° 0 mm 0 mps 709 mmHg 83%
    19:00 +10°C° 0 mm 0 mps 709 mmHg 85%
    20:00 +9°C° 0 mm 0 mps 710 mmHg 87%
    21:00 +9°C° 0 mm 0 mps 710 mmHg 87%
    22:00 +9°C° 0 mm 0 mps 710 mmHg 88%
    23:00 +8°C° 0 mm 0 mps 711 mmHg 88%

    22 Noviembre, Jueves

    Tiempo Temperatura Precipitaciones Viento Presión Humedad
    00:00 +8°C° 0 mm 0 mps 711 mmHg 89%
    01:00 +8°C° 0 mm 0 mps 711 mmHg 89%
    02:00 +8°C° 0 mm 0 mps 711 mmHg 89%
    03:00 +8°C° 0 mm 0 mps 711 mmHg 90%
    04:00 +7°C° 0 mm 0 mps 711 mmHg 90%
    05:00 +7°C° 0 mm 0 mps 711 mmHg 90%
    06:00 +7°C° 0 mm 0 mps 712 mmHg 91%
    07:00 +7°C° 0 mm 0 mps 712 mmHg 91%
    08:00 +7°C° 0 mm 0 mps 713 mmHg 91%
    09:00 +9°C° 0 mm 0 mps 713 mmHg 86%
    10:00 +11°C° 0 mm 1 mps 713 mmHg 82%
    11:00 +12°C° 0 mm 1 mps 714 mmHg 77%
    12:00 +13°C° 0 mm 1 mps 714 mmHg 75%
    13:00 +13°C° 0 mm 1 mps 714 mmHg 74%
    14:00 +13°C° 0 mm 1 mps 714 mmHg 72%
    15:00 +12°C° 0 mm 1 mps 714 mmHg 77%
    16:00 +11°C° 0 mm 1 mps 714 mmHg 82%
    17:00 +10°C° 0 mm 1 mps 714 mmHg 88%
    18:00 +10°C° 0 mm 1 mps 714 mmHg 89%
    19:00 +9°C° 0 mm 1 mps 714 mmHg 91%
    20:00 +9°C° 0 mm 1 mps 715 mmHg 92%
    21:00 +9°C° 0 mm 1 mps 715 mmHg 93%
    22:00 +8°C° 0 mm 1 mps 715 mmHg 93%
    23:00 +8°C° 0 mm 1 mps 715 mmHg 93%
    Mostrar más